When you browse on this site, cookies collect data to enhance your experience and personalize the content and advertising you see.
Visit our Privacy Policy to learn more. By continuing to use the site, you agree to this use of cookies and data.
  • In United Kingdom
  • List of Countries
  • For 7 days
  • Water Temperature
  • Weather Map
  • Weather Widgets
  • user-avatar
    Login

    Hourly Weather Pontypool

    Today, 4 April, Saturday

    Time Temperature Precipitation Wind Pressure Humidity
    00:00 +5°C° 0 mm 1 mps 749 mmHg 93%
    01:00 +5°C° 0 mm 1 mps 749 mmHg 94%
    02:00 +5°C° 0 mm 1 mps 749 mmHg 94%
    03:00 +5°C° 0 mm 1 mps 749 mmHg 94%
    04:00 +4°C° 0 mm 1 mps 749 mmHg 95%
    05:00 +4°C° 0 mm 1 mps 748 mmHg 95%
    06:00 +3°C° 0 mm 2 mps 748 mmHg 96%
    07:00 +4°C° 0 mm 3 mps 748 mmHg 91%
    08:00 +7°C° 0 mm 3 mps 749 mmHg 87%
    09:00 +7°C° 0 mm 4 mps 749 mmHg 82%
    10:00 +8°C° 0 mm 5 mps 749 mmHg 78%
    11:00 +10°C° 0 mm 6 mps 749 mmHg 73%
    12:00 +11°C° 0 mm 7 mps 748 mmHg 68%
    13:00 +11°C° 0 mm 7 mps 748 mmHg 67%
    14:00 +11°C° 0 mm 7 mps 748 mmHg 66%
    15:00 +11°C° 0 mm 7 mps 748 mmHg 65%
    16:00 +10°C° 0 mm 6 mps 747 mmHg 70%
    17:00 +9°C° 0 mm 5 mps 747 mmHg 75%
    18:00 +8°C° 0 mm 4 mps 747 mmHg 80%
    19:00 +7°C° 0 mm 4 mps 747 mmHg 84%
    20:00 +7°C° 0 mm 3 mps 747 mmHg 88%
    21:00 +4°C° 0 mm 3 mps 747 mmHg 93%
    22:00 +4°C° 0 mm 3 mps 747 mmHg 93%
    23:00 +4°C° 0 mm 3 mps 746 mmHg 93%

    Tomorrow, 5 April, Sunday

    Time Temperature Precipitation Wind Pressure Humidity
    00:00 +4°C° 0 mm 3 mps 746 mmHg 94%
    01:00 +4°C° 0 mm 3 mps 746 mmHg 94%
    02:00 +4°C° 0 mm 3 mps 745 mmHg 94%
    03:00 +4°C° 0 mm 4 mps 745 mmHg 94%
    04:00 +4°C° 0 mm 4 mps 744 mmHg 94%
    05:00 +4°C° 0 mm 4 mps 744 mmHg 95%
    06:00 +4°C° 0 mm 3 mps 743 mmHg 96%
    07:00 +6°C° 0 mm 4 mps 743 mmHg 91%
    08:00 +8°C° 0 mm 5 mps 743 mmHg 86%
    09:00 +10°C° 0 mm 6 mps 742 mmHg 81%
    10:00 +11°C° 0 mm 7 mps 742 mmHg 78%
    11:00 +12°C° 0 mm 8 mps 742 mmHg 76%
    12:00 +13°C° 0 mm 9 mps 742 mmHg 73%
    13:00 +13°C° 0 mm 9 mps 741 mmHg 74%
    14:00 +13°C° 0 mm 9 mps 741 mmHg 76%
    15:00 +12°C° 0 mm 9 mps 740 mmHg 77%
    16:00 +12°C° 0 mm 9 mps 740 mmHg 78%
    17:00 +12°C° 0 mm 8 mps 740 mmHg 80%
    18:00 +11°C° 0 mm 8 mps 739 mmHg 82%
    19:00 +11°C° 0.1 mm 8 mps 739 mmHg 83%
    20:00 +11°C° 0.1 mm 8 mps 739 mmHg 84%
    21:00 +11°C° 0.1 mm 8 mps 739 mmHg 85%
    22:00 +10°C° 0.5 mm 8 mps 740 mmHg 88%
    23:00 +10°C° 0.5 mm 8 mps 740 mmHg 92%

    Day after tomorrow, 6 April, Monday

    Time Temperature Precipitation Wind Pressure Humidity
    00:00 +10°C° 0.5 mm 8 mps 740 mmHg 95%
    01:00 +9°C° 0.1 mm 7 mps 740 mmHg 94%
    02:00 +8°C° 0.1 mm 6 mps 741 mmHg 93%
    03:00 +7°C° 0.1 mm 5 mps 741 mmHg 92%
    04:00 +7°C° 0 mm 5 mps 742 mmHg 93%
    05:00 +6°C° 0 mm 4 mps 742 mmHg 94%
    06:00 +6°C° 0 mm 4 mps 743 mmHg 95%
    07:00 +7°C° 0 mm 4 mps 744 mmHg 90%
    08:00 +8°C° 0 mm 5 mps 745 mmHg 86%
    09:00 +9°C° 0 mm 5 mps 746 mmHg 81%
    10:00 +10°C° 0 mm 6 mps 746 mmHg 76%
    11:00 +10°C° 0 mm 6 mps 747 mmHg 71%
    12:00 +11°C° 0 mm 6 mps 748 mmHg 66%
    13:00 +11°C° 0 mm 6 mps 748 mmHg 65%
    14:00 +11°C° 0 mm 6 mps 749 mmHg 64%
    15:00 +10°C° 0 mm 5 mps 750 mmHg 63%
    16:00 +10°C° 0 mm 5 mps 750 mmHg 67%
    17:00 +10°C° 0 mm 4 mps 751 mmHg 71%
    18:00 +9°C° 0 mm 3 mps 752 mmHg 75%
    19:00 +7°C° 0 mm 3 mps 752 mmHg 79%
    20:00 +6°C° 0 mm 2 mps 753 mmHg 83%
    21:00 +6°C° 0 mm 1 mps 754 mmHg 87%
    22:00 +5°C° 0 mm 1 mps 755 mmHg 88%
    23:00 +5°C° 0 mm 1 mps 755 mmHg 88%

    7 April, Tuesday

    Time Temperature Precipitation Wind Pressure Humidity
    00:00 +5°C° 0 mm 1 mps 755 mmHg 88%
    01:00 +4°C° 0 mm 1 mps 755 mmHg 89%
    02:00 +3°C° 0 mm 0 mps 756 mmHg 89%
    03:00 +3°C° 0 mm 0 mps 756 mmHg 89%
    04:00 +3°C° 0 mm 0 mps 756 mmHg 89%
    05:00 +3°C° 0 mm 0 mps 756 mmHg 89%
    06:00 +3°C° 0 mm 0 mps 757 mmHg 89%
    07:00 +6°C° 0 mm 1 mps 757 mmHg 84%
    08:00 +8°C° 0 mm 1 mps 757 mmHg 78%
    09:00 +9°C° 0 mm 2 mps 757 mmHg 73%
    10:00 +10°C° 0 mm 2 mps 757 mmHg 68%
    11:00 +12°C° 0 mm 2 mps 757 mmHg 64%
    12:00 +12°C° 0 mm 3 mps 758 mmHg 60%
    13:00 +12°C° 0 mm 3 mps 757 mmHg 60%
    14:00 +12°C° 0 mm 3 mps 757 mmHg 61%
    15:00 +13°C° 0 mm 3 mps 757 mmHg 61%
    16:00 +12°C° 0 mm 3 mps 757 mmHg 67%
    17:00 +12°C° 0 mm 2 mps 757 mmHg 72%
    18:00 +10°C° 0 mm 2 mps 757 mmHg 77%
    19:00 +9°C° 0 mm 2 mps 757 mmHg 80%
    20:00 +8°C° 0 mm 1 mps 757 mmHg 83%
    21:00 +6°C° 0 mm 1 mps 757 mmHg 86%
    22:00 +6°C° 0 mm 1 mps 757 mmHg 87%
    23:00 +6°C° 0 mm 1 mps 757 mmHg 87%

    8 April, Wednesday

    Time Temperature Precipitation Wind Pressure Humidity
    00:00 +4°C° 0 mm 0 mps 757 mmHg 87%
    01:00 +4°C° 0 mm 0 mps 757 mmHg 87%
    02:00 +4°C° 0 mm 0 mps 757 mmHg 87%
    03:00 +3°C° 0 mm 0 mps 757 mmHg 87%
    04:00 +3°C° 0 mm 0 mps 757 mmHg 86%
    05:00 +3°C° 0 mm 0 mps 757 mmHg 86%
    06:00 +3°C° 0 mm 0 mps 757 mmHg 86%
    07:00 +6°C° 0 mm 1 mps 757 mmHg 79%
    08:00 +8°C° 0 mm 1 mps 757 mmHg 73%
    09:00 +11°C° 0 mm 1 mps 757 mmHg 67%
    10:00 +12°C° 0 mm 1 mps 757 mmHg 63%
    11:00 +13°C° 0 mm 1 mps 757 mmHg 59%
    12:00 +14°C° 0 mm 1 mps 757 mmHg 55%
    13:00 +15°C° 0 mm 1 mps 757 mmHg 55%
    14:00 +15°C° 0 mm 1 mps 757 mmHg 55%
    15:00 +16°C° 0 mm 1 mps 756 mmHg 55%
    16:00 +15°C° 0 mm 1 mps 756 mmHg 61%
    17:00 +14°C° 0 mm 1 mps 756 mmHg 66%
    18:00 +13°C° 0 mm 1 mps 755 mmHg 72%
    19:00 +12°C° 0 mm 1 mps 756 mmHg 75%
    20:00 +10°C° 0 mm 1 mps 756 mmHg 78%
    21:00 +9°C° 0 mm 1 mps 756 mmHg 81%
    22:00 +9°C° 0 mm 1 mps 756 mmHg 83%
    23:00 +8°C° 0 mm 1 mps 756 mmHg 84%

    9 April, Thursday

    Time Temperature Precipitation Wind Pressure Humidity
    00:00 +8°C° 0 mm 1 mps 756 mmHg 86%
    01:00 +8°C° 0 mm 1 mps 756 mmHg 87%
    02:00 +8°C° 0 mm 1 mps 755 mmHg 88%
    03:00 +7°C° 0 mm 1 mps 755 mmHg 89%
    04:00 +6°C° 0 mm 2 mps 755 mmHg 89%
    05:00 +6°C° 0 mm 2 mps 755 mmHg 89%
    06:00 +6°C° 0 mm 2 mps 755 mmHg 90%
    07:00 +8°C° 0 mm 2 mps 755 mmHg 87%
    08:00 +10°C° 0 mm 3 mps 755 mmHg 84%
    09:00 +12°C° 0 mm 3 mps 755 mmHg 80%
    10:00 +13°C° 0 mm 3 mps 755 mmHg 78%
    11:00 +14°C° 0 mm 4 mps 755 mmHg 77%
    12:00 +17°C° 0 mm 4 mps 755 mmHg 75%
    13:00 +17°C° 0.1 mm 4 mps 754 mmHg 74%
    14:00 +18°C° 0.1 mm 4 mps 754 mmHg 73%
    15:00 +17°C° 0.1 mm 5 mps 754 mmHg 72%
    16:00 +17°C° 0 mm 4 mps 753 mmHg 75%
    17:00 +15°C° 0 mm 4 mps 753 mmHg 79%
    18:00 +14°C° 0 mm 3 mps 753 mmHg 83%
    19:00 +13°C° 0 mm 3 mps 753 mmHg 85%
    20:00 +12°C° 0 mm 2 mps 753 mmHg 88%
    21:00 +10°C° 0 mm 2 mps 753 mmHg 91%
    22:00 +9°C° 0 mm 2 mps 753 mmHg 92%
    23:00 +9°C° 0 mm 2 mps 753 mmHg 93%
    Show more